Content
SEND FEEDBACK

Daily
Averages
Monthly
Summary
United States of America

HATCH, UTAH


Home > North America > United States > Utah
Elevation: 7000 feet     Latitude: 37 39N     Longitude: 112 26W

WEATHER
 
SELECT A DAY
Number of Records: 154,266;   Date Range: 1/3/95 - 7/28/14
 
SHARE

PRINT THIS DATA

[ ← Previous Day ]
WEATHER ALMANAC - FEBRUARY 13, 2013
[ Next Day → ]
[ °C ]   °F
Weather ElementAverageHighLow
Temperature22.2 °F37 °F (3:53 pm)7 °F (4:53 am)
Dewpoint15.2 °F21.9 °F (1:53 pm)5 °F (4:53 am)
Humidity76.2 %92 % (3:53 am)52 % (3:53 pm)
Barometer30.25 in30.35 in (7:53 am)30.16 in (11:53 pm)
Wind Speed9.5 mph13.8 mph (10:53 pm)
Weather ElementAverage
Visibility10 mi
Wind DirectionWNW (306.1 °)

Weather ElementTotal
Precipitation---
Heating Degree Days43 (Base 65)
Averaged from 23 records on February 13, 2013
WEATHER CONDITIONS BREAKOUT
WIND DIRECTION BREAKOUT
WEATHER BY HOUR - FEBRUARY 13, 2013
[ °C ]   °F
Local TimeTemperatureDewpointHumidityBarometerVisibilityWind DirectionWind SpeedGust SpeedPrecipitationEventsConditions
1:53 AM15.1 °F10.9 °F84 %30.28 inNW (320°)12.7 mph
2:53 AM12.9 °F10.0 °F88 %30.27 in10.0 miWNW (300°)11.5 mphClear
3:53 AM8.1 °F6.1 °F92 %30.27 in10.0 miWNW (290°)8.1 mphClear
4:53 AM7.0 °F5.0 °F92 %30.29 in10.0 miWNW (290°)10.4 mphClear
5:53 AM10.0 °F8.1 °F92 %30.21 in10.0 miWNW (290°)10.4 mphClear
6:53 AM9.0 °F7.0 °F92 %30.32 in10.0 miWest (270°)6.9 mphClear
7:53 AM10.0 °F7.0 °F87 %30.35 in10.0 miWest (260°)6.9 mphClear
8:53 AM19.0 °F14.0 °F81 %30.30 in10.0 miNW (320°)5.8 mphClear
9:53 AM24.1 °F17.1 °F75 %30.29 in10.0 miNorth (350°)8.1 mphClear
10:53 AM27.0 °F18.0 °F69 %30.27 in10.0 miNorth (350°)8.1 mphClear
11:53 AM30.0 °F19.9 °F66 %30.26 in10.0 miNorth (350°)9.2 mphClear
12:53 PM33.1 °F21.0 °F61 %30.22 in10.0 miNorth (360°)8.1 mph
1:53 PM34.0 °F21.9 °F61 %30.19 in10.0 miNW (310°)12.7 mphClear
2:53 PM36.0 °F21.9 °F57 %30.18 in10.0 miNNW (330°)11.5 mphClear
3:53 PM37.0 °F21.0 °F52 %30.21 in10.0 miNW (320°)8.1 mphClear
4:53 PM35.1 °F21.0 °F57 %30.22 in10.0 miWNW (300°)12.7 mphClear
5:53 PM32.0 °F21.0 °F64 %30.22 in10.0 miNNW (340°)10.4 mphClear
6:53 PM28.0 °F19.9 °F72 %30.24 in10.0 miWNW (300°)10.4 mphClear
7:53 PM19.9 °F16.0 °F85 %30.30 in10.0 miNE (50°)5.8 mphClear
8:53 PM19.9 °F15.1 °F81 %30.25 in10.0 miNorth (350°)8.1 mphClear
9:53 PM19.0 °F15.1 °F85 %30.23 in10.0 miNNW (340°)10.4 mph
10:53 PM21.0 °F16.0 °F81 %30.20 in10.0 miNNW (330°)13.8 mphClear
11:53 PM23.0 °F17.1 °F78 %30.16 in10.0 miNW (320°)9.2 mphClear
Hourly data recorded from KBCE, located miles away from Hatch, Utah







STORIES FROM OUR PARTNERS